Theta_e
346 347 348 347 347 347 346 346 347 346 346 344 341 337 336 338 338 338 340 343 342 333 337 339 343 332 331 339 330 330 329 328 332 337 341 339 339 337 331 330 341 343 331
346 346 346 346 346 345 345 345 345 345 343 340 338 339 341 339 336 339 341 340 342 327 339 341 331 330 328 326 328 335 339 335 336 340 339 344 340 342 337 331 342 339 337
349 347 346 341 339 339 339 338 339 339 339 340 341 340 336 337 340 340 337 337 332 328 335 332 332 331 329 330 341 340 340 336 335 333 338 343 345 339 339 336 330 329 338
345 345 346 340 343 343 341 338 338 338 338 343 346 336 332 330 339 338 337 341 333 340 333 334 330 330 333 337 338 341 340 341 341 343 347 343 340 329 332 337 329 328 331
346 344 344 335 334 336 339 338 340 340 339 330 325 326 340 341 331 324 327 338 331 332 333 332 332 339 339 338 339 340 343 343 342 348 350 350 347 343 327 329 333 333 332
348 348 339 338 338 341 341 345 345 343 329 340 329 321 337 336 336 327 329 331 333 336 337 338 339 334 335 335 339 342 343 341 342 348 349 349 348 343 334 328 328 329 330
350 350 348 344 343 344 342 343 342 326 321 334 330 322 325 333 337 336 335 333 331 331 333 334 334 335 334 338 341 341 339 341 343 348 349 350 350 343 340 336 333 328 327
348 349 345 337 339 343 341 331 325 325 324 325 330 330 331 331 333 334 334 333 332 331 331 330 329 328 329 331 338 339 338 339 350 349 350 350 345 341 341 340 339 338 336
348 346 345 345 345 340 327 325 332 329 329 328 333 336 336 337 337 336 336 337 340 341 337 334 334 339 338 336 335 335 336 337 341 350 348 348 344 341 343 343 343 342 340
347 346 350 349 348 342 326 328 330 330 331 335 338 339 343 343 343 343 344 343 343 344 343 341 342 342 344 341 341 342 340 344 350 347 349 349 342 344 343 340 343 343 343
345 347 348 348 347 345 338 330 331 336 338 339 339 341 347 350 350 349 344 342 341 342 342 342 341 341 343 347 345 342 344 343 341 341 343 347 339 342 345 344 342 343 342
345 345 345 347 346 346 342 341 348 345 348 350 350 349 350 350 350 347 345 341 340 339 338 341 343 347 349 347 348 347 345 344 344 343 342 340 338 337 343 343 343 343 344
344 344 345 346 345 344 345 349 350 348 349 346 343 348 350 352 349 349 348 347 348 345 348 349 349 347 347 346 344 342 343 341 341 342 342 338 337 335 336 340 336 341 342
343 345 345 345 345 347 350 349 349 349 351 351 350 343 346 348 351 351 348 349 350 349 351 350 347 348 345 343 341 341 340 339 339 340 340 335 335 334 333 333 334 335 338
344 347 347 347 334 349 350 351 350 350 350 352 351 347 352 350 352 351 351 351 350 350 349 350 350 346 346 343 342 342 338 339 340 340 340 339 335 336 336 335 334 334 335
344 348 348 346 335 339 347 342 347 350 349 350 349 350 343 349 351 350 351 350 350 350 348 349 345 348 349 347 347 346 342 339 342 341 340 341 338 336 338 337 337 336 336
344 347 347 345 340 336 344 341 343 348 348 348 348 343 342 344 343 345 351 351 351 353 348 351 351 351 350 349 349 346 342 341 340 339 341 341 342 340 338 337 336 337 337
343 346 345 343 344 337 342 340 347 348 348 348 349 350 342 341 340 343 350 350 352 354 352 350 350 350 347 343 343 347 343 341 340 340 340 337 338 337 338 336 336 335 334
345 346 346 344 344 340 341 343 345 348 348 350 350 349 348 346 347 345 349 350 348 352 352 351 352 345 343 339 337 341 340 340 340 339 338 338 336 336 335 335 333 331 331
345 346 347 346 346 342 346 344 349 350 350 351 350 349 349 349 344 344 349 348 348 349 350 351 346 344 338 332 335 336 333 337 340 340 340 338 335 334 334 333 332 331 327
345 347 349 349 346 340 345 349 348 350 352 351 351 351 346 349 345 343 348 350 352 351 350 346 346 346 337 337 336 335 335 340 340 340 340 337 335 334 333 333 326 322 326
346 348 349 349 345 340 346 348 346 350 351 352 352 353 352 352 350 347 345 350 351 351 348 346 346 346 342 338 335 338 338 336 342 336 337 337 337 335 333 330 324 320 321
347 350 350 346 346 343 348 349 349 349 352 354 353 352 352 344 344 346 344 342 348 348 352 348 344 348 344 337 336 333 339 339 339 341 342 340 337 336 336 332 328 326 322
350 350 351 345 342 344 343 350 352 351 351 351 351 351 352 352 341 338 337 337 337 348 354 349 348 349 348 345 335 336 336 336 338 340 343 342 340 338 339 333 330 329 330
349 349 351 350 344 345 344 346 350 350 351 352 352 353 354 351 347 345 341 337 334 339 352 348 348 348 349 343 341 341 341 341 341 342 342 343 343 342 336 333 330 330 330
349 349 350 351 344 344 344 345 346 348 350 351 352 353 353 353 353 347 343 340 337 348 353 347 347 348 350 345 334 343 344 343 343 343 343 343 343 339 337 334 330 331 330
Wind_Speed
29 22 18 18 18 18 18 17 16 16 13 12 11 11 11 11 10 9 8 10 9 9 10 8 9 9 10 10 10 11 10 10 10 10 9 8 8 8 7 6 10 2 3
22 17 18 17 17 16 15 15 16 15 13 11 10 11 11 10 10 10 10 10 8 9 11 9 9 11 11 11 12 13 12 11 11 8 7 11 7 5 7 7 10 3 3
18 17 17 17 17 16 15 15 15 14 12 10 9 9 9 10 10 9 9 7 8 10 10 10 10 11 12 12 11 11 11 12 12 11 11 5 3 4 4 6 3 3 1
17 17 16 19 17 16 14 14 13 12 10 10 9 10 9 10 10 9 9 10 9 10 10 10 10 10 10 8 7 8 10 11 11 11 9 6 3 6 5 5 4 3 3
17 15 15 15 14 13 12 11 10 10 10 9 8 10 11 11 8 9 10 9 9 11 11 10 9 9 8 8 8 7 8 8 7 11 5 4 4 6 6 5 3 3 2
18 15 16 15 14 13 11 11 11 11 10 11 11 12 13 12 10 11 11 11 9 8 8 8 7 7 6 6 5 4 5 4 6 5 5 7 5 6 5 4 2 3 1
18 15 15 15 13 12 12 11 12 10 13 14 12 13 13 12 12 11 10 9 8 7 7 7 6 5 4 3 2 3 4 4 6 5 6 7 6 8 5 4 4 4 4
18 15 13 14 13 13 11 12 12 13 14 14 14 13 13 12 10 9 8 8 7 5 4 4 3 4 4 4 2 2 4 5 7 6 6 9 12 8 5 5 5 5 6
16 14 12 12 12 13 12 13 14 15 15 15 14 13 13 12 11 10 9 8 7 6 5 5 5 5 5 5 5 6 7 8 8 7 8 8 12 7 7 6 7 7 8
15 13 13 12 11 10 12 14 15 15 15 15 13 13 13 11 10 8 7 5 5 5 4 5 5 5 7 9 10 9 9 9 9 9 9 10 11 9 7 8 8 9 9
14 13 13 13 12 11 13 15 15 15 14 13 12 12 11 6 6 8 5 6 6 5 6 7 9 9 10 13 14 13 12 9 9 8 7 12 11 11 10 8 9 9 11
16 14 14 14 13 13 12 17 12 13 9 9 9 9 8 7 6 7 6 7 7 8 10 12 12 13 13 9 10 13 11 9 9 9 8 12 12 12 11 11 9 10 10
17 16 15 15 14 14 13 12 11 10 9 9 12 9 6 5 5 6 6 6 7 10 7 9 9 8 9 9 10 11 11 11 9 8 9 11 11 10 9 9 9 9 9
18 17 16 15 16 15 14 12 11 10 9 7 7 9 6 7 5 7 7 7 8 6 7 8 8 9 9 10 11 13 13 11 10 8 8 8 7 7 6 5 8 7 7
19 18 17 17 19 17 17 12 12 10 9 7 7 6 4 5 4 5 4 5 6 6 6 7 8 9 10 10 12 14 16 14 11 7 6 11 7 8 9 8 6 7 8
19 19 18 18 20 21 18 17 13 11 9 8 6 5 6 5 3 3 4 4 4 4 5 7 8 8 9 10 12 13 16 15 11 7 4 7 11 10 11 11 10 10 10
19 18 18 19 20 23 21 17 15 10 8 7 6 7 7 6 5 3 1 3 2 4 7 7 6 7 8 10 10 12 12 12 9 9 5 5 7 10 10 10 11 12 12
20 20 19 18 19 23 21 19 13 10 8 7 6 6 7 7 6 2 0 0 2 4 5 5 5 5 7 10 13 12 14 11 8 8 6 6 6 6 11 10 10 10 12
22 21 20 20 19 22 22 19 16 12 10 8 8 6 8 6 5 3 2 3 3 3 3 4 5 9 12 14 15 15 16 11 6 7 6 8 9 7 6 11 12 14 14
22 21 21 20 20 22 18 21 14 12 11 9 8 7 9 7 6 3 3 3 4 6 6 5 10 12 14 14 20 21 20 15 9 9 7 9 8 9 8 13 12 12 19
24 23 22 22 22 23 22 19 17 14 12 11 11 11 11 9 8 8 5 6 7 8 9 7 12 12 15 15 24 20 14 5 8 6 8 8 11 7 9 19 17 15 10
27 26 24 24 24 25 22 20 17 15 13 12 12 13 13 12 12 11 11 10 11 10 10 13 12 15 16 19 22 12 6 11 3 14 15 10 15 15 13 12 17 18 14
30 28 28 29 27 27 24 20 18 18 16 13 14 15 14 16 16 15 15 14 15 14 17 19 18 16 16 18 22 12 6 8 17 9 7 10 11 12 13 13 12 12 16
32 29 28 30 32 29 28 23 23 19 19 16 15 13 12 12 13 15 18 19 19 15 21 22 20 17 19 21 22 25 19 20 13 15 9 9 12 13 13 10 12 12 13
32 31 29 30 32 31 30 29 26 26 21 19 17 16 15 14 14 14 17 18 21 19 23 24 22 17 18 12 25 20 21 17 16 16 23 15 14 12 10 10 13 12 13
31 31 30 30 33 32 32 31 32 29 26 21 19 17 14 11 12 14 17 19 20 17 24 25 22 20 20 15 28 25 19 19 19 17 19 22 20 14 11 12 13 13 15
Wind_Direction
137 144 141 142 135 131 130 137 143 144 141 129 120 112 110 111 112 114 106 105 100 98 108 113 100 99 97 95 94 91 82 82 86 84 95 90 88 70 55 69 92 57 111
139 139 142 146 142 136 132 131 133 140 141 130 121 115 111 107 106 107 105 103 94 90 96 96 99 94 96 93 89 84 75 69 73 73 69 36 30 57 46 51 118 173 90
130 145 140 141 140 137 135 132 131 132 131 126 124 119 116 111 107 106 111 101 90 99 110 100 97 97 94 102 87 59 66 60 60 54 64 75 4 21 20 35 40 90 64
140 142 144 142 137 133 131 132 130 130 129 125 120 117 116 111 110 110 102 97 94 103 97 95 94 95 91 83 72 73 49 43 42 50 45 39 19 2 12 4 14 36 73
141 142 156 141 140 136 134 134 129 129 126 123 120 122 113 114 110 116 123 117 104 99 92 85 84 86 87 74 72 69 43 38 38 41 10 18 18 316 359 9 6 22 87
139 148 146 143 145 140 136 127 132 127 125 117 121 127 128 119 107 115 114 111 102 89 79 79 80 79 74 78 82 62 44 29 15 349 346 329 351 305 344 10 0 324 322
136 144 144 144 145 140 132 135 133 132 131 129 123 123 128 124 119 111 109 103 91 83 79 75 76 74 68 79 72 47 20 1 359 355 339 349 314 298 322 347 358 346 324
143 141 145 145 148 137 138 138 131 127 125 123 119 117 118 118 117 114 108 100 94 82 66 67 68 58 59 56 40 345 336 327 345 317 322 341 322 292 303 325 336 334 325
146 152 144 147 149 148 145 139 135 130 126 125 123 119 113 110 108 106 104 104 97 88 82 73 63 57 42 26 5 343 332 335 336 311 319 327 328 333 275 312 329 322 314
155 151 153 148 148 142 145 144 140 133 131 131 123 117 111 99 98 92 86 88 93 89 88 75 50 43 31 20 16 8 352 7 342 326 320 302 330 343 309 295 296 319 308
159 158 159 156 156 158 149 145 140 136 135 132 125 120 94 96 84 74 97 85 76 69 69 58 52 46 33 10 5 1 18 354 338 331 324 302 331 328 335 317 282 310 309
162 166 164 159 162 155 150 145 146 140 137 143 144 129 119 124 111 104 81 58 57 74 64 54 39 33 24 21 3 2 355 343 339 335 330 309 325 326 317 326 308 297 312
166 167 168 166 162 157 162 155 152 154 154 148 146 134 149 117 100 83 70 63 70 62 72 48 31 28 17 21 10 1 358 355 342 331 316 314 321 329 314 309 320 304 307
173 170 168 170 167 163 161 154 159 158 159 150 165 144 131 94 87 96 99 73 65 69 55 51 34 26 25 22 19 11 1 343 335 328 319 338 346 342 345 302 313 308 293
177 175 175 176 174 171 162 170 162 166 156 171 157 169 144 139 117 90 73 87 86 65 39 37 24 23 24 10 10 4 360 352 338 327 317 321 345 347 344 334 324 324 302
182 182 181 180 178 174 171 170 171 166 179 160 169 177 174 153 159 98 62 80 74 52 33 24 15 19 16 13 2 358 1 2 356 354 315 313 315 309 316 307 302 298 298
189 185 187 185 185 182 177 174 171 180 177 179 187 192 181 174 198 146 66 86 56 15 23 6 14 2 357 355 351 351 357 358 360 358 348 321 317 318 312 292 292 289 288
190 189 189 191 193 188 186 184 184 193 191 197 209 210 198 193 199 195 21 215 332 22 26 9 351 334 331 347 348 342 347 340 355 5 351 350 336 328 329 310 304 297 291
193 193 193 194 196 195 192 192 199 209 207 213 215 211 229 217 221 220 251 269 304 344 333 352 304 313 322 325 337 331 332 324 313 320 331 336 330 323 302 316 310 305 296
198 196 196 197 198 200 200 201 208 214 218 220 217 211 227 228 231 234 254 277 299 280 289 300 293 310 319 321 323 323 311 303 286 311 313 329 316 327 320 305 307 299 304
201 201 200 201 204 203 204 205 211 217 226 226 224 224 228 228 239 253 253 276 286 268 258 277 285 316 317 305 326 310 332 345 303 285 296 302 310 313 309 317 314 310 306
206 207 207 206 207 209 209 211 214 223 232 233 233 234 235 236 244 256 260 258 261 259 259 266 286 302 309 303 339 351 6 340 247 301 283 290 308 310 309 320 314 314 319
209 211 210 212 211 213 207 214 221 225 228 233 235 240 246 248 250 256 261 261 253 260 257 263 280 294 296 312 334 349 336 328 322 329 312 293 298 306 300 299 306 304 308
211 211 211 215 217 217 218 214 219 221 230 238 243 244 242 248 260 258 261 261 258 245 255 263 277 293 299 312 326 334 327 319 318 316 322 299 304 310 297 292 297 299 308
210 211 213 215 219 218 222 220 226 232 236 242 244 246 249 247 266 262 262 262 256 250 256 261 273 294 298 303 310 314 319 323 314 299 306 309 307 313 304 298 299 303 310
208 209 210 213 218 221 225 227 229 231 237 235 243 243 250 253 257 258 258 263 260 247 246 261 277 292 290 301 321 296 300 307 307 293 293 303 307 330 319 313 306 302 312